Weather History for K9V9 - January, 2013

Change the Weather History Date:

Monday, January 7, 2013

  Actual Average Record
Temperature  
Mean Temperature 29 °F -  
Max Temperature 37 °F 27 °F 61 °F (2003)
Min Temperature 21 °F 8 °F -6 °F (2015)
Degree Days  
Heating Degree Days 36    
Moisture  
Dew Point 19 °F    
Average Humidity 71    
Maximum Humidity 85    
Minimum Humidity 57    
Precipitation  
Precipitation 0.00 in - - ()
Sea Level Pressure  
Sea Level Pressure 29.97 in    
Wind  
Wind Speed 8 mph (WSW)    
Max Wind Speed 14 mph    
Max Gust Speed 76 mph    
Averages and records for this station are not official NWS values.
T = Trace of Precipitation, MM = Missing Value Source: NWS Daily Summary

Daily Weather History Graph

Daily Weather History Graph

Search for Another Location

Airport or City:

Trip Planner

Search our weather history database for the weather conditions in past years. The results will help you decide how hot, cold, wet, or windy it might be!

Date:

Astronomy

Jan. 07, 2013 Rise Set
Actual Time 8:10 AM CST 5:16 PM CST
Civil Twilight 7:38 AM CST 5:49 PM CST
Nautical Twilight 7:02 AM CST 6:25 PM CST
Astronomical Twilight 6:27 AM CST 7:00 PM CST
Moon 3:34 AM CST (1/7) 1:30 PM CST (1/7)
Length of Visible Light 10h 11m
Length of Day
9h 06m
Waning Crescent, 22% of the Moon is Illuminated
Jan 7
Waning Crescent
Jan 11
New
Jan 18
First Quarter
Jan 26
Full
Feb 3
Last Quarter

Hourly Weather History & Observations

Time (CST) Temp. Windchill Dew Point Humidity Pressure Visibility Wind Dir Wind Speed Gust Speed Precip Events Conditions
12:52 AM 30.9 °F 20.7 °F 21.0 °F 67% 29.89 in - WSW 13.8 mph - N/A   Unknown
1:52 AM 30.0 °F 24.1 °F 19.9 °F 66% 29.90 in - NW 5.8 mph - N/A   Unknown
2:52 AM 26.1 °F 21.9 °F 17.1 °F 69% 29.91 in - West 3.5 mph - N/A   Unknown
3:52 AM 26.1 °F 19.4 °F 17.1 °F 69% 29.93 in - WNW 5.8 mph - N/A   Unknown
4:52 AM 21.9 °F 14.5 °F 15.1 °F 75% 29.94 in - WNW 5.8 mph - N/A   Unknown
5:52 AM 24.1 °F - 17.1 °F 75% 29.95 in - North - - N/A   Unknown
6:52 AM 23.0 °F 14.7 °F 16.0 °F 74% 29.97 in - West 6.9 mph - N/A   Unknown
7:52 AM 23.0 °F 12.4 °F 16.0 °F 74% 30.01 in - West 10.4 mph - N/A   Unknown
8:52 AM 21.9 °F 10.4 °F 15.1 °F 75% 30.03 in - West 11.5 mph - N/A   Unknown
9:52 AM 25.0 °F 15.5 °F 17.1 °F 72% 30.04 in - West 9.2 mph - N/A   Unknown
10:52 AM 28.0 °F 21.7 °F 18.0 °F 66% 30.04 in - WSW 5.8 mph - N/A   Unknown
11:52 AM 32.0 °F 24.8 °F 19.9 °F 61% 30.02 in - WNW 8.1 mph - N/A   Unknown
12:52 PM 33.1 °F 26.1 °F 21.9 °F 64% 30.01 in - West 8.1 mph - N/A   Unknown
1:52 PM 35.1 °F - 23.0 °F 61% 29.99 in - Calm Calm - N/A   Unknown
2:52 PM 35.1 °F 31.0 °F 24.1 °F 64% 29.98 in - SSW 4.6 mph - N/A   Unknown
3:52 PM 37.9 °F - 24.1 °F 57% 29.98 in - Calm Calm - N/A   Unknown
4:52 PM 34.0 °F - 24.1 °F 67% 29.99 in - Calm Calm - N/A   Unknown
5:52 PM 28.9 °F 21.9 °F 21.0 °F 72% 29.99 in - East 6.9 mph - N/A   Unknown
6:52 PM 28.0 °F 20.0 °F 21.0 °F 75% 29.99 in - ESE 8.1 mph 76.0 mph N/A   Squalls
7:52 PM 27.0 °F 19.5 °F 19.9 °F 75% 29.98 in - East 6.9 mph - N/A   Unknown
8:52 PM 21.9 °F 13.4 °F 18.0 °F 85% 29.98 in - ESE 6.9 mph - N/A   Unknown
9:52 PM 23.0 °F 14.7 °F 18.0 °F 81% 29.97 in - SE 6.9 mph - N/A   Unknown
10:52 PM 21.9 °F 14.5 °F 18.0 °F 85% 29.96 in - ESE 5.8 mph - N/A   Unknown
11:52 PM 21.9 °F 14.5 °F 17.1 °F 82% 29.94 in - SE 5.8 mph - N/A   Unknown